If you wish to contribute or participate in the discussions about articles you are invited to join SKYbrary as a registered user

 Actions

Amado Nervo National Airport

From SKYbrary Wiki

MMEP /
Revision as of 10:25, 9 October 2017 by Editor1 (talk | contribs)
(diff) ← Older revision | Latest revision (diff) | Newer revision → (diff)
Airport
ICAO: MMEP – IATA: TPQ
Summary
Name Amado Nervo National Airport
Region South America and Caribbean
Territory Mexico MX.gif
Location Tepic, Nayarit
Serving Tepic
Elevation 920.496 m
3,020 ft
3,020 ft920.496 m
Type medium airport
Coordinates 21° 25' 10.03" N, 104° 50' 33.29" W
Runways
Designator Length Width Surface ROPS
2/20 2300 m7,545.932 ft
45 m147.638 ft
ASP /


METAR
Observation MMEP 222049Z 36009KT 12SM SKC 29/15 A3004 RMK SLP160 57020 907 HZY
Station Tepic, Nay.
Date/Time 22 March 2019 20:49:00
Wind direction 360°
Wind speed 09 kts
Lowest cloud amount n/a
Temperature 29°C
Dew point 15°C
Humidity 42%
QNH hPa
Weather condition n/a

Amado Nervo national Airport or Tepic Airport is an international airport located at Tepic and the main airport in the Mexican state of Nayarit.

Climatology

Humid subtropical climate (Köppen climate classification Cwa)

Maps

Terrain

Loading map...

Airport Layout

Loading map...


Accidents & Serious Incidents at or in vicinity of MMEP

None on SKYbrary